Location: Poughquag
(41.6090°N, 73.6820°W)
Time: 05:27:43
(UTC-04:00)

STARLINK-1330 - Pass Details

Date: 29 May 2020
Orbit: 549 x 550 km, 53.0° (Epoch: 26 September)

Event Time Altitude Azimuth Distance (km) Brightness Sun altitude
Exits shadow 01:31:20 - 288° (WNW) 1,960 6.5 -26.1°
Reaches altitude 10° 01:31:42 10° 290° (WNW) 1,849 6.4 -26.0°
Maximum altitude 01:35:01 22° 343° (NNW) 1,233 6.0 -25.9°
Drops below altitude 10° 01:38:19 10° 36° (NE) 1,833 7.1 -25.8°
Sets 01:40:57 0° 51° (NE) 2,724 7.9 -25.7°
